User: anonymous   Login
Location: Unspecified
(0.0000°N, 0.0000°E)
Time: 22:45:20
(UTC+00:00)
Language:

EUCROPIS - Orbit

View from above orbital plane
View from above orbital plane
View from above satellite
View from above satellite

Ground track
Ground track

The orbit data is extracted from the following two-line orbital elements,

1 43807U 18099BB  22267.45925605  .00002904  00000-0  25484-3 0  9995
2 43807  97.6162 332.6574 0010689 292.7378  67.2714 14.97335765207306
Epoch (UTC): 24 September 2022 11:01:19
Eccentricity: 0.0010689
inclination: 97.6162°
perigee height: 568 km
apogee height: 582 km
right ascension of ascending node: 332.6574°
argument of perigee: 292.7378°
revolutions per day: 14.97335765
mean anomaly at epoch: 67.2714°
orbit number at epoch: 20730

The dashed part of the orbit path shows where the satellite is in the earth's shadow,  

DLR